Simultaneous Nadir Overpasses (SNOs) Predictions

Prediction of SNOs between AQUA and METOP-B Satellite Orbit:

Table of predicted SNOs for the next 14.0 days since TLE Epoch: 6/18/2016
Index Date (AQUA) Time (AQUA) Lat,Lon (AQUA) SZA (AQUA ) Date (METOP-B) Time (METOP-B) Lat,Lon (METOP-B) SZA (METOP-B ) Distance(km) Time Diff (sec)
1 06/18/2016 06:08:21 -73.73, -97.63 129.68 06/18/2016 06:07:13 -73.73, -97.71 129.66 2.48 68
2 06/18/2016 06:57:50 73.79, 69.87 50.39 06/18/2016 06:57:52 73.79, 69.76 50.40 3.48 2
3 06/18/2016 07:47:18 -73.93,-122.81 129.46 06/18/2016 07:48:31 -73.91,-122.62 129.50 6.26 73
4 06/21/2016 01:42:35 -73.76, -31.27 129.66 06/21/2016 01:41:35 -73.78, -31.19 129.64 2.98 60
5 06/21/2016 02:32:04 73.83, 136.23 50.41 06/21/2016 02:32:14 73.83, 136.28 50.42 1.95 10
6 06/21/2016 03:21:38 -74.28, -57.15 129.10 06/21/2016 03:22:47 -74.25, -55.36 129.20 54.15 69
7 06/23/2016 21:16:48 -73.76, 35.19 129.63 06/23/2016 21:15:58 -73.77, 35.22 129.61 1.79 50
8 06/23/2016 22:06:17 73.83,-157.33 50.45 06/23/2016 22:06:37 73.83,-157.32 50.45 0.18 20
9 06/26/2016 16:51:00 -73.76, 101.62 129.53 06/26/2016 16:50:20 -73.76, 101.61 129.53 0.28 40
10 06/26/2016 17:40:29 73.84, -90.91 50.55 06/26/2016 17:40:59 73.81, -90.93 50.53 2.55 30
11 06/29/2016 12:25:13 -73.78, 168.03 129.37 06/29/2016 12:24:43 -73.75, 168.00 129.39 3.10 30
12 06/29/2016 13:14:42 73.86, -24.51 50.72 06/29/2016 13:15:21 73.85, -24.43 50.70 2.41 39




NCC Satellite Simultaneous Nadir Overpasses (SNOs) Prediction Service
